Regional Weather Roundup
Issued by NWS

Home | Current Version | Previous Version | Text Only | Print | Product List | Glossary On
Versions: 1 2 3 4 5 6 7 8 9 10 11 12 13 14 15 16 17 18 19 20 21 22 23 24 25 26 27 28 29 30 31 32 33 34 35 36 37 38 39 40 41 42 43 44 45 46 47 48 49 50
000
ASUS43 KOAX 271002
RWRNE

WEATHER ROUNDUP FOR NEBRASKA
NATIONAL WEATHER SERVICE OMAHA NE
400 AM CST THU NOV 27 2014

NOTES: SATELLITE DATA IS BEING USED TO AUGMENT CLOUD COVER ABOVE
       12000 FEET.
       "FAIR" INDICATES FEW OR NO CLOUDS BELOW 12,000 FEET WITH NO
       SIGNIFICANT WEATHER AND/OR OBSTRUCTIONS TO VISIBILITY.

  * THESE STATIONS DO NOT REPORT WEATHER SUCH AS RAIN...SNOW OR FOG.

NEZ001>004-019>022-054>056-271100-
NEBRASKA PANHANDLE

CITY           SKY/WX    TMP DP  RH WIND       PRES   REMARKS
SCOTTSBLUFF    MOCLDY    14  12  92 NW5       30.21F WCI   6
ALLIANCE       CLEAR     21  19  92 S7        30.19F WCI  12
CHADRON        PTCLDY   N/A N/A N/A CALM      30.20F
SIDNEY         PTCLDY    13  11  92 SW6       30.23S WCI   4
$$

NEZ057>060-069>072-079>082-271100-
SOUTHWEST NEBRASKA

CITY           SKY/WX    TMP DP  RH WIND       PRES   REMARKS
NORTH PLATTE   CLOUDY    25  19  78 SE7       30.31F WCI  17
IMPERIAL       PTCLDY    21  18  88 SE9       30.29F WCI  11
MCCOOK         CLEAR     22  16  78 S6        30.36F WCI  14
$$

NEZ005>010-023>029-035>040-094-271100-
NORTH CENTRAL NEBRASKA

CITY           SKY/WX    TMP DP  RH WIND       PRES   REMARKS
VALENTINE      CLOUDY    23  17  78 SE8       30.33S WCI  14
BROKEN BOW     CLOUDY    23  16  74 SE5       30.36F WCI  17
ORD            CLOUDY    19  14  81 CALM      30.39F
$$

NEZ041-046>049-061>064-073>077-083>087-271100-
SOUTH CENTRAL NEBRASKA

CITY           SKY/WX    TMP DP  RH WIND       PRES   REMARKS
GRAND ISLAND   CLOUDY    18  13  80 E3        30.42F
HASTINGS       CLOUDY    21  13  71 CALM      30.42R
KEARNEY *      CLOUDY    19  14  79 SE3       30.41F
$$

NEZ011>018-030>034-042>045-271100-
NORTHEAST NEBRASKA

CITY           SKY/WX    TMP DP  RH WIND       PRES   REMARKS
NORFOLK        CLOUDY    16   8  71 NE3       30.45S
COLUMBUS *     CLOUDY    16   9  73 E5        30.47S WCI   9
TEKAMAH        CLOUDY    17  10  74 N9        30.51S WCI   6
$$

NEZ050>053-065>068-078-088>093-271100-
SOUTHEAST NEBRASKA

CITY           SKY/WX    TMP DP  RH WIND       PRES   REMARKS
LINCOLN        CLEAR     13   8  81 NE5       30.50F WCI   5
OMAHA EPPLEY   PTCLDY    15  11  83 N5        30.52S WCI   8
FALLS CITY     CLOUDY    23  17  78 NW10      30.49R WCI  12
$$

NEZ044-045-051>053-067-271100-
OMAHA AREA

CITY           SKY/WX    TMP DP  RH WIND       PRES   REMARKS
OMAHA EPPLEY   PTCLDY    15  11  83 N5        30.52S WCI   8
OFFUTT AFB     CLEAR     14  10  83 N6        30.49F WCI   5
$$


USA.gov is the U.S. government's official web portal to all federal, state and local government web resources and services.